Theta_e
341 341 341 342 343 345 345 346 347 348 349 350 351 351 350 351 350 351 353 355 354 355 354 353 351 351 350 350 350 351 351 353 355 351 351 351 357 358 359 360 360 361 360 361 358 364 357 355 356 357 359 362 360 356 358 358 357 358 361 357 353 351 350 350 348 337 334 332 340 337 337 342 349 347 340 341 344 344 347 347 345 345 345 349 349
342 340 340 342 343 344 345 345 347 344 347 349 350 351 351 351 350 351 353 354 354 355 354 353 352 352 350 350 349 351 352 351 351 351 350 353 359 359 360 360 360 360 361 360 361 360 358 357 356 356 359 359 360 361 358 363 359 358 358 355 356 351 347 349 347 337 335 329 328 331 334 339 345 338 340 341 342 343 341 343 339 339 343 345 347
340 340 340 341 342 343 344 345 346 345 347 348 350 350 350 350 350 353 352 354 354 356 354 352 353 353 352 351 350 350 354 355 352 354 353 350 358 359 360 360 360 360 361 362 360 360 362 360 358 359 361 362 360 358 358 357 357 357 355 352 349 350 352 354 343 338 336 336 337 332 326 325 334 338 343 341 341 341 341 339 338 338 340 341 344
338 339 340 340 341 342 343 344 345 345 346 347 348 349 350 351 350 352 352 354 354 355 356 353 354 354 354 353 352 352 352 355 353 354 354 351 356 359 359 360 360 360 361 361 362 360 362 359 360 362 361 361 359 358 358 356 357 356 356 354 351 344 344 345 349 340 340 333 326 329 326 327 323 326 333 337 339 340 339 337 340 338 338 341 340
338 339 340 340 340 341 342 343 345 344 345 346 347 348 349 350 350 352 352 354 354 356 355 353 355 353 353 354 354 354 354 353 351 350 350 352 354 357 357 360 360 360 360 361 361 360 363 360 361 362 364 361 361 359 359 358 358 358 357 353 350 346 345 345 346 339 344 345 339 331 329 326 326 328 333 333 338 337 338 338 343 338 338 341 337
339 339 340 340 340 341 342 343 343 344 344 347 348 349 348 349 350 351 352 353 353 354 354 353 353 351 350 350 347 348 347 348 347 347 347 349 349 356 358 360 360 360 360 360 360 361 364 364 363 362 363 362 363 361 360 359 359 359 359 354 350 349 348 340 334 349 345 348 344 341 336 326 330 328 328 322 340 340 337 338 339 338 337 336 336
340 340 340 340 340 341 342 342 343 343 344 347 348 348 348 349 350 351 350 351 353 353 353 353 351 351 350 350 348 347 346 348 349 350 349 349 348 353 357 359 359 358 359 360 360 361 365 364 364 362 364 362 364 362 360 359 358 356 357 354 351 352 351 342 335 335 335 340 346 344 346 347 346 330 328 329 325 330 339 333 335 338 338 339 340
340 340 340 340 340 341 342 343 343 344 345 346 347 348 347 349 350 350 350 352 352 353 352 352 351 351 350 350 350 347 348 347 349 349 350 351 347 349 356 356 358 358 358 359 359 360 364 364 364 362 364 364 363 361 361 359 358 358 358 355 353 354 349 345 343 336 329 332 338 338 343 345 339 341 334 329 327 325 328 336 334 336 335 336 338
340 339 339 340 340 341 344 343 344 345 346 346 346 347 347 349 352 350 349 352 351 353 352 352 352 351 351 350 350 350 349 350 351 350 350 352 347 347 353 354 357 357 358 359 359 359 365 365 364 363 362 363 364 362 361 360 357 357 356 353 351 353 350 348 347 340 336 332 335 336 337 339 336 339 342 339 333 326 328 328 330 337 335 334 335
341 341 340 340 341 342 345 346 345 346 347 348 347 348 348 348 352 350 349 352 352 352 352 352 352 353 350 349 349 350 350 351 351 349 349 352 347 347 353 353 356 357 357 358 358 359 364 365 364 364 362 363 364 363 362 360 359 358 356 354 352 353 351 352 348 346 338 336 336 333 334 341 333 334 334 332 334 333 328 326 329 330 328 331 336
340 341 341 341 343 343 345 345 346 346 347 348 348 348 349 349 351 350 349 351 353 352 351 351 352 353 351 350 349 350 349 350 349 349 348 351 350 347 352 353 356 356 357 357 358 359 363 364 364 364 364 363 364 362 361 360 360 358 357 356 354 352 351 351 352 350 347 344 337 334 332 338 333 330 332 331 331 330 329 330 328 332 329 332 333
340 340 340 341 342 343 344 345 346 346 347 348 348 349 350 349 351 350 350 350 353 353 352 352 352 353 352 352 350 351 350 350 349 349 349 349 350 351 350 354 355 356 357 357 357 358 360 363 365 364 364 361 361 361 361 360 360 360 357 355 353 354 354 353 349 348 345 342 340 342 335 342 342 339 339 337 333 332 330 329 333 333 332 333 338
340 340 341 341 341 341 342 344 345 345 347 348 349 349 350 350 350 350 350 350 352 354 352 352 352 352 353 353 352 353 352 350 349 350 350 350 349 352 351 353 354 355 356 355 356 357 357 360 362 362 362 362 360 360 360 360 359 360 357 356 354 354 354 352 348 348 344 340 341 343 339 340 339 341 342 338 340 339 337 333 336 336 329 331 333
339 339 340 341 341 342 342 344 345 346 347 348 349 349 350 350 350 350 350 351 352 353 353 352 352 353 354 354 354 354 353 352 351 351 352 352 352 352 355 352 355 354 356 355 357 358 358 359 361 361 362 362 362 361 361 361 359 358 357 356 355 354 356 353 350 351 348 344 341 340 338 339 338 342 339 339 337 337 333 331 332 338 332 330 334
339 340 341 341 342 342 342 344 346 347 348 349 349 349 350 350 350 350 350 351 352 352 354 352 352 353 354 355 355 355 355 353 353 354 355 353 354 353 354 355 355 356 356 357 359 357 357 359 360 360 361 362 362 362 362 361 361 358 357 357 356 355 355 355 352 350 351 345 342 341 340 338 338 340 337 336 339 337 335 334 332 328 329 330 331
338 339 341 342 342 342 343 343 347 348 348 349 349 349 349 350 350 350 350 352 352 352 353 354 353 353 354 354 355 356 357 355 354 355 355 356 355 354 353 355 356 355 358 359 359 358 357 359 360 360 361 362 361 361 362 361 362 359 356 356 354 359 355 355 353 351 351 346 343 342 341 340 341 340 339 335 338 337 338 337 334 330 325 323 328
336 338 340 341 342 342 343 343 347 349 349 349 349 349 350 350 351 350 351 352 353 353 353 354 354 353 354 355 356 356 356 355 354 354 354 356 357 356 355 355 357 358 358 361 360 358 357 358 359 360 360 361 361 361 362 361 362 360 358 356 354 357 355 354 354 351 351 350 343 343 342 341 341 346 345 340 336 339 338 336 337 334 331 326 323
336 338 340 342 342 343 343 344 346 349 349 349 350 350 351 352 352 351 351 351 353 354 353 354 354 353 354 355 356 356 356 356 356 355 354 353 355 357 357 356 356 360 360 360 360 358 357 361 358 359 359 360 360 360 361 361 361 360 358 358 357 356 355 355 355 353 351 350 346 345 343 342 344 344 342 345 339 339 344 342 340 335 335 331 329
335 336 337 341 343 343 343 344 346 348 349 350 351 352 353 353 354 353 352 353 354 355 355 355 355 355 355 355 355 356 357 357 357 357 355 353 352 355 358 359 358 359 360 359 359 358 357 357 357 358 358 359 359 360 360 360 361 359 358 358 358 356 355 354 355 354 353 351 347 345 344 343 343 343 343 342 348 339 341 344 342 341 338 334 335
334 335 336 338 341 343 344 344 345 347 349 351 352 353 353 354 355 354 354 354 355 355 356 354 355 355 355 356 356 356 357 356 356 356 355 353 352 353 356 358 359 360 360 360 359 359 358 357 357 357 358 359 358 360 360 360 361 359 358 358 358 357 355 354 354 355 355 352 348 346 344 343 343 342 342 343 342 344 342 340 343 342 341 337 337
334 336 337 337 339 342 344 345 346 347 349 351 353 352 353 355 355 355 354 354 354 355 356 356 356 355 355 355 355 355 356 357 356 355 355 354 353 353 354 356 360 359 359 359 359 358 358 357 358 357 357 358 358 358 360 360 360 359 358 358 358 357 355 355 354 354 354 352 349 348 346 345 344 343 341 343 344 345 343 341 343 341 340 341 336
334 336 337 338 338 340 343 345 346 348 351 351 352 353 353 353 355 356 356 355 355 355 355 356 356 356 355 355 355 356 356 356 356 355 354 354 353 353 353 354 355 360 360 358 357 359 359 357 357 357 357 359 359 359 360 360 359 358 357 358 358 357 355 355 354 353 353 353 350 347 348 347 345 343 342 341 343 345 342 340 340 342 340 341 339
334 336 337 338 339 339 341 343 344 345 349 352 353 353 353 353 354 356 356 356 356 356 356 356 356 356 355 356 356 356 355 355 355 355 354 354 354 353 354 354 354 357 360 359 357 357 359 358 356 357 357 358 360 360 360 360 359 358 357 357 357 357 356 355 355 354 353 352 350 349 348 349 349 344 343 342 343 342 343 340 339 341 340 341 341
334 335 337 338 339 340 341 342 343 344 345 349 352 353 353 354 354 355 355 356 357 358 357 356 356 356 357 356 356 356 355 355 354 355 354 354 355 354 354 354 354 355 358 360 358 356 357 359 357 356 356 357 359 360 360 360 359 359 358 356 356 356 356 356 355 355 354 352 350 349 349 349 349 345 344 343 342 341 340 341 340 339 340 340 341
333 334 335 337 338 339 340 342 343 344 346 349 352 353 353 353 354 355 356 357 358 359 358 357 356 356 356 356 356 356 355 355 354 354 354 355 355 355 355 354 355 355 356 358 359 357 355 358 359 357 356 356 358 360 360 359 359 360 359 358 357 356 357 357 356 356 357 354 352 350 350 349 349 346 344 344 342 340 341 340 340 339 339 340 342
333 334 334 334 336 339 342 344 346 346 346 349 351 353 353 352 353 356 358 358 359 360 359 357 357 356 356 356 356 356 355 355 354 354 354 355 355 355 355 355 355 355 356 358 358 358 356 354 358 359 358 357 357 359 360 359 359 359 359 359 358 356 356 357 357 356 356 355 354 351 351 350 348 347 345 345 344 341 341 340 340 339 339 339 340
332 333 334 335 336 337 341 344 346 346 344 347 350 352 353 352 352 355 359 360 361 360 360 358 357 356 356 356 356 356 356 355 355 354 354 354 354 354 355 356 356 356 356 357 358 358 358 356 356 359 360 359 358 358 359 359 358 358 359 358 358 357 356 356 357 357 357 356 356 354 352 351 349 348 347 346 345 343 342 340 341 340 340 339 338
330 331 333 334 336 337 340 342 343 344 344 345 349 352 353 352 352 354 358 360 362 361 361 360 358 356 356 356 356 356 356 356 355 354 353 353 353 353 354 356 357 355 355 356 358 358 358 358 356 356 359 360 360 359 359 359 359 358 358 358 358 357 357 356 356 357 357 357 357 356 354 352 351 349 348 347 346 344 343 341 341 342 340 339 338
329 331 332 334 335 337 338 340 341 343 343 344 349 352 354 354 354 355 356 358 361 361 360 360 359 357 356 356 356 356 356 356 356 355 354 354 354 354 354 355 356 356 356 356 357 358 358 358 358 357 357 359 360 360 360 359 358 357 358 358 358 357 357 356 356 356 357 357 357 357 356 354 353 348 342 343 343 342 345 341 340 341 341 340 339
331 333 334 335 337 339 339 340 341 342 344 347 350 352 354 354 354 355 355 357 359 360 360 359 359 358 357 357 356 356 355 355 356 355 355 354 354 355 354 354 355 356 356 356 356 357 358 357 358 358 357 358 359 361 351 339 343 357 357 358 358 358 357 356 356 355 356 356 357 357 357 346 342 339 338 337 338 337 338 343 342 340 341 340 339
334 335 335 336 339 341 340 341 343 345 348 350 353 354 354 355 355 355 355 356 357 358 359 359 358 359 358 357 356 355 355 354 355 356 355 354 354 354 354 353 355 357 357 356 356 355 356 357 357 358 358 358 358 358 340 334 335 339 354 357 357 357 358 357 356 355 354 355 356 357 357 351 342 339 341 334 336 335 335 337 338 338 339 342 339
337 341 342 341 344 348 345 343 345 349 350 350 351 354 354 354 355 356 356 356 356 356 357 358 358 359 359 359 357 356 356 355 354 354 355 355 354 353 353 353 354 356 358 358 357 355 356 357 357 357 358 359 359 343 335 333 333 333 339 357 357 357 357 357 357 356 355 355 355 356 356 357 354 351 350 344 337 334 333 333 335 334 335 337 339
344 345 347 349 352 353 354 352 351 352 352 351 352 353 353 354 355 356 357 356 355 355 355 357 357 358 359 359 358 357 356 356 355 354 355 355 354 353 352 353 353 355 358 357 357 356 355 356 357 356 356 358 359 342 334 331 331 331 332 343 358 357 357 357 357 357 356 356 355 355 355 356 357 341 346 350 347 343 331 330 332 334 333 333 334
341 342 343 344 347 350 353 352 352 352 354 353 354 352 353 355 355 355 355 355 355 354 355 355 356 357 359 360 359 358 357 357 357 355 355 355 354 353 353 354 354 354 355 357 357 356 356 355 356 357 357 357 358 343 332 329 328 329 331 336 356 357 356 357 357 357 357 357 356 355 354 354 356 354 351 350 350 348 345 340 337 339 340 338 332
342 342 342 343 345 347 348 347 349 349 350 350 351 352 353 352 352 353 353 353 353 354 353 355 355 356 358 360 359 358 357 357 357 356 355 354 355 354 353 353 354 354 353 355 356 356 356 356 355 356 357 358 358 339 330 327 325 325 329 332 353 357 356 356 356 357 357 357 357 357 355 355 355 355 354 350 351 349 347 344 341 340 341 341 340
350 350 350 351 351 350 353 353 352 349 344 346 349 350 350 351 352 351 352 353 352 352 352 356 355 355 357 360 360 359 358 358 358 357 356 355 355 355 354 354 354 354 355 354 355 357 356 356 356 355 355 356 359 335 328 326 324 324 326 341 351 354 355 355 355 355 356 358 358 357 356 355 355 355 345 332 340 351 349 346 343 342 342 342 342
346 346 346 347 347 348 351 349 346 344 342 343 344 345 349 349 350 349 349 352 353 352 351 354 357 356 357 360 360 359 359 358 359 358 357 356 355 356 356 356 354 354 354 354 354 355 356 357 356 356 355 354 356 340 326 323 322 322 326 346 350 353 354 355 355 355 356 356 358 358 356 356 355 355 342 330 331 336 350 347 345 343 343 342 342
343 344 345 346 348 349 353 355 353 355 356 356 356 352 352 358 357 347 347 349 351 352 353 353 358 358 358 360 361 360 359 359 359 358 358 358 358 358 358 359 356 354 353 354 355 355 356 356 356 357 357 356 355 344 322 320 320 320 329 348 351 353 354 355 355 356 356 356 357 348 356 357 355 355 336 327 327 334 348 348 347 344 342 341 342
342 343 345 348 352 354 355 356 353 353 355 355 357 357 357 356 359 359 347 346 348 351 353 353 358 360 359 361 362 362 361 360 359 360 360 360 359 359 359 360 359 358 356 355 355 355 355 356 357 357 348 354 357 347 322 318 317 318 328 349 353 353 354 355 355 355 356 357 357 352 343 344 349 348 333 326 324 330 348 349 348 346 343 342 343
340 346 348 349 353 352 352 350 351 351 358 359 361 358 356 360 362 358 356 348 347 349 354 355 358 361 360 361 363 362 362 361 361 361 362 362 362 361 361 361 361 360 358 357 356 355 355 355 356 356 357 357 357 358 346 315 315 315 319 346 353 353 353 354 356 355 355 356 356 356 349 329 327 329 327 323 321 321 344 350 350 347 345 343 346
342 347 352 346 349 351 349 348 351 355 355 355 358 361 360 355 357 355 354 356 352 351 354 357 357 362 361 361 362 363 363 363 363 363 364 364 364 362 362 361 361 361 359 358 357 356 356 356 356 357 356 357 358 358 354 317 312 313 315 325 351 353 355 355 355 354 355 355 355 356 356 338 326 323 321 320 317 317 325 348 350 349 348 347 342
345 354 348 344 348 349 348 351 351 353 353 353 355 358 361 360 354 354 356 358 362 354 355 357 358 361 361 361 362 363 365 365 365 365 364 364 365 364 363 362 362 361 359 357 356 355 355 355 357 358 358 358 356 345 360 324 313 311 313 314 342 352 354 356 355 356 356 356 356 357 356 344 329 322 319 319 317 315 317 337 348 334 333 332 344
341 343 346 345 346 347 348 350 351 352 352 354 357 356 358 361 355 360 365 365 366 362 356 357 358 360 361 361 362 363 364 367 366 366 365 364 365 364 363 362 361 360 359 358 357 356 355 354 354 356 358 360 360 356 335 345 315 312 311 312 320 337 335 353 356 355 356 357 358 358 356 341 328 321 316 316 317 317 315 326 324 326 326 326 333
341 345 345 347 344 350 348 348 350 353 353 354 356 354 363 359 356 362 364 365 363 365 360 358 356 358 361 361 362 364 366 367 367 366 365 364 364 364 363 362 362 360 359 358 358 357 356 355 354 355 358 360 361 361 341 330 330 313 313 312 313 319 328 348 356 357 358 358 358 358 352 334 325 319 316 315 317 317 326 318 316 320 323 326 338
340 344 345 345 344 348 345 347 348 350 350 354 356 355 356 355 356 361 363 363 363 364 362 359 358 357 362 363 363 365 366 367 368 367 365 364 364 364 362 362 362 361 359 359 358 359 357 356 355 355 355 357 360 360 362 339 323 315 313 312 313 315 318 323 346 355 355 357 342 334 331 326 325 322 320 318 317 316 316 318 317 318 322 339 338
342 343 344 345 345 345 345 345 347 349 349 352 356 355 351 352 359 360 360 360 362 363 363 361 360 359 361 365 364 365 366 367 367 368 367 366 365 364 362 363 363 361 361 359 359 359 359 358 357 357 356 357 358 358 360 351 330 321 315 311 311 311 312 313 317 332 323 320 317 319 321 321 321 327 335 335 335 336 320 317 317 320 329 337 337
340 344 346 344 344 344 345 346 345 346 348 352 351 354 355 357 358 359 360 360 361 365 363 363 363 362 362 364 365 364 365 365 367 367 368 368 367 366 363 362 363 363 362 360 360 358 358 357 357 358 358 357 358 357 347 340 341 337 330 327 322 322 316 314 323 328 325 333 334 333 334 324 322 320 321 320 323 325 327 326 325 327 330 335 337
341 344 345 342 342 342 344 343 343 345 347 350 351 351 352 354 355 357 359 358 363 360 361 361 364 365 364 363 366 376 368 364 366 367 367 366 366 367 365 362 362 363 361 361 359 357 356 356 355 356 356 357 355 332 328 332 331 333 338 335 330 329 329 329 328 329 330 332 334 326 329 338 341 343 344 342 338 334 331 331 332 331 331 333 333
340 342 344 340 340 342 342 343 342 345 347 347 347 348 353 359 358 357 357 357 359 366 362 358 361 360 361 361 363 365 363 363 363 363 364 363 363 365 363 358 345 349 360 361 361 357 356 358 357 355 355 349 337 331 325 308 316 308 324 333 336 335 334 333 327 321 331 332 333 333 334 335 337 338 340 343 344 343 339 336 334 335 334 334 335
341 343 342 340 342 341 340 339 341 344 345 345 347 350 353 353 355 356 356 358 356 355 358 357 359 360 358 358 359 359 361 361 361 359 356 344 328 310 330 349 340 323 315 316 325 343 348 344 329 324 332 343 334 326 306 299 301 300 298 301 303 302 301 313 306 307 322 329 331 332 333 335 336 337 338 339 341 343 343 342 340 329 334 335 335
339 342 342 340 339 342 342 341 341 344 345 347 349 350 348 351 351 352 352 351 350 358 355 354 353 353 353 356 358 358 358 359 361 359 352 344 340 328 303 302 315 316 308 303 303 306 313 321 328 321 314 309 308 301 297 298 297 298 300 300 300 299 298 296 299 319 325 327 330 331 332 334 335 337 337 339 340 341 341 341 341 341 340 336 333
Wind_Speed
15 15 14 17 17 16 15 13 12 13 12 14 14 13 13 12 13 13 14 13 11 9 9 9 9 7 5 7 7 8 8 5 4 6 6 6 7 9 8 7 7 7 6 5 6 5 6 5 5 4 4 3 4 3 3 3 2 2 3 2 2 1 2 2 0 4 5 3 3 3 3 3 3 3 4 4 5 6 6 5 4 5 4 5 5
16 14 15 17 16 18 15 14 13 15 14 16 15 14 13 11 13 12 12 13 13 10 10 10 9 8 9 7 5 7 7 7 5 5 6 5 9 9 8 8 8 7 7 6 6 5 6 5 5 5 5 4 4 3 3 3 3 2 2 2 1 3 2 2 2 4 1 3 3 1 1 2 1 3 4 3 3 4 6 6 6 7 7 6 4
17 15 15 16 19 18 14 15 15 15 15 17 15 14 14 11 11 10 12 12 13 11 9 10 8 7 8 5 6 5 4 5 4 4 5 6 8 9 9 9 9 7 7 7 6 5 6 6 6 5 5 5 5 5 4 3 3 3 3 4 2 1 2 1 4 4 2 3 2 4 1 2 1 1 1 2 3 3 2 5 7 7 8 8 7
18 17 17 17 18 17 15 16 16 14 14 15 16 17 14 11 12 11 12 12 12 11 10 8 8 8 6 5 4 6 6 5 5 4 4 6 9 9 8 9 9 8 8 7 6 6 7 7 6 6 6 5 6 6 5 5 3 3 4 4 3 2 1 2 2 4 3 5 3 2 3 4 0 2 2 3 4 4 2 5 3 4 4 3 5
19 18 17 17 17 19 17 17 16 16 15 17 16 17 13 15 14 13 12 13 12 13 13 9 8 8 7 5 4 5 5 5 5 5 6 4 7 9 9 9 9 8 8 8 7 7 6 7 6 6 6 6 6 6 6 6 6 5 4 5 4 4 3 3 1 3 3 4 4 3 1 1 2 3 2 2 1 3 3 5 6 6 5 5 6
20 21 19 18 17 16 15 17 17 16 16 16 17 16 15 13 14 14 11 11 12 13 14 11 10 11 10 9 9 7 9 9 11 11 9 7 8 8 9 9 9 8 8 8 8 7 7 7 7 6 5 6 6 5 5 5 5 5 5 5 6 4 4 3 2 1 5 4 4 3 4 2 4 2 4 2 2 0 3 4 6 6 6 6 6
16 16 17 17 16 16 17 18 18 17 17 15 15 15 16 14 14 15 13 12 12 13 14 12 10 11 13 12 12 10 11 9 9 7 8 6 6 8 9 9 10 9 9 9 8 8 7 7 7 7 7 6 5 5 5 6 6 6 4 4 6 5 3 3 4 2 1 1 3 3 2 1 3 4 2 2 3 2 2 3 4 6 7 6 6
17 17 17 17 17 18 19 20 18 18 17 16 15 15 17 15 16 16 13 12 12 13 15 14 12 12 12 11 10 10 9 10 10 9 7 7 7 7 8 9 9 9 9 8 8 8 8 8 7 7 7 7 6 6 6 5 5 4 4 6 5 4 5 5 4 3 6 2 2 3 1 1 2 2 4 6 5 4 2 1 2 5 4 6 7
20 17 19 19 18 18 17 18 18 16 15 16 16 16 16 16 16 15 15 14 12 15 15 15 13 12 12 11 10 9 8 8 8 8 8 8 9 6 8 9 9 9 9 9 9 8 8 8 8 8 7 7 7 6 6 6 7 6 6 6 5 4 5 4 3 4 4 5 2 2 1 1 2 2 2 3 2 3 2 3 3 1 2 4 5
19 20 20 19 19 18 17 16 15 15 15 15 15 13 14 14 14 16 16 13 13 14 14 14 14 12 11 11 11 9 8 6 8 10 8 8 10 9 7 8 8 8 8 8 9 9 8 8 8 8 8 8 7 7 6 6 6 6 6 6 6 4 4 4 5 5 5 3 4 5 3 1 1 2 1 2 1 2 4 4 4 4 5 4 4
17 17 18 18 18 17 14 15 17 15 13 15 15 14 13 14 15 16 17 14 14 15 15 15 14 13 12 13 13 11 11 9 9 9 9 8 9 10 8 9 8 8 8 8 8 9 8 9 9 8 7 7 7 7 7 7 6 7 6 5 6 6 5 4 3 4 4 5 4 5 6 5 5 3 3 3 3 2 1 3 3 5 7 3 4
18 17 17 17 14 15 15 15 16 16 14 16 15 15 15 15 15 17 16 15 14 15 16 15 14 14 13 13 13 11 11 10 11 11 12 11 9 10 7 7 8 8 8 8 8 9 8 8 9 8 8 7 8 8 7 7 6 6 6 6 6 6 5 5 4 4 4 4 5 5 5 4 4 4 5 5 5 4 5 3 3 2 1 2 2
17 17 16 16 16 18 19 18 17 16 16 19 19 18 17 17 18 18 17 17 15 15 17 17 15 14 13 13 13 11 11 11 11 11 10 10 10 8 8 8 8 8 9 9 9 10 8 8 9 9 8 8 7 7 7 8 6 7 7 7 7 6 6 6 6 5 4 5 6 5 6 5 5 4 5 5 4 5 5 3 3 3 5 2 3
19 18 18 18 18 18 19 19 19 18 18 18 19 18 16 17 19 20 19 18 17 16 17 17 17 15 14 14 13 12 12 11 11 11 11 10 9 9 9 9 10 11 10 10 9 9 8 9 9 9 8 8 7 7 7 6 7 7 7 7 7 7 6 7 7 6 4 5 5 6 6 6 6 5 5 4 4 5 5 4 2 0 2 6 1
18 18 18 19 19 19 18 18 18 18 18 16 16 17 16 16 17 19 18 17 17 17 16 18 16 16 14 14 13 11 11 11 11 10 10 11 10 10 8 8 9 9 10 9 9 10 9 9 9 9 8 9 8 7 7 6 6 7 7 8 7 7 7 7 6 7 6 5 5 6 7 6 6 6 5 6 6 6 6 6 5 3 1 2 2
18 18 19 20 19 19 17 16 15 15 18 15 17 16 17 17 19 20 20 18 18 17 16 17 17 15 15 15 15 13 11 10 9 9 8 11 11 11 11 8 8 7 7 9 10 11 9 9 9 9 8 8 8 8 7 7 6 7 7 7 8 6 8 7 7 7 7 6 6 5 6 7 6 5 6 6 7 7 6 5 6 6 6 2 1
19 18 17 19 18 18 19 19 16 17 17 18 18 18 18 17 17 18 18 16 17 17 17 16 16 16 17 16 15 14 14 13 12 12 12 10 11 11 10 10 7 7 7 8 10 10 10 9 10 10 9 8 8 8 8 7 7 7 7 8 8 8 8 8 7 8 7 6 6 6 6 6 6 4 3 5 6 6 6 6 7 8 7 6 4
20 20 18 20 20 21 20 19 20 21 22 19 16 15 15 16 18 19 18 19 18 18 17 15 16 17 16 16 16 16 15 15 13 13 12 10 8 9 9 9 10 9 9 8 8 10 10 10 9 10 10 10 10 9 9 9 8 7 7 7 8 7 8 7 7 8 8 6 6 7 6 6 5 4 6 4 5 6 7 7 6 6 7 8 6
17 17 16 17 17 19 19 20 21 21 19 18 15 16 15 15 17 19 21 21 20 18 17 15 14 13 14 17 17 16 14 14 13 12 11 11 11 10 10 11 10 9 9 10 10 10 10 10 10 10 10 11 10 10 10 9 9 8 8 7 7 7 8 8 8 8 8 7 6 8 7 7 6 5 4 3 4 6 6 7 7 6 6 7 7
17 17 17 17 18 20 21 20 19 18 17 17 18 17 19 18 18 18 19 18 17 17 16 16 15 14 14 14 15 15 15 15 14 13 12 13 12 12 11 10 12 11 10 10 11 11 11 11 10 11 11 11 11 10 10 10 9 9 9 8 8 8 8 9 8 8 7 7 7 7 8 8 7 5 5 5 4 5 6 6 6 7 6 6 7
18 19 18 18 18 19 19 18 18 19 18 18 18 20 20 18 19 19 20 20 20 19 17 16 15 16 15 15 16 16 16 14 15 14 14 13 12 12 12 11 9 11 11 10 11 12 12 12 11 11 12 11 11 11 10 10 10 9 9 9 8 9 10 8 8 9 9 8 8 7 7 8 7 7 7 6 4 5 5 6 6 6 7 6 7
20 19 18 18 17 17 16 16 16 16 17 20 19 18 19 20 19 19 19 19 20 19 18 17 15 16 17 17 17 15 16 14 15 15 15 14 13 12 12 11 11 11 12 13 11 10 11 12 12 12 12 12 12 12 11 10 11 10 10 8 9 10 11 10 8 10 10 9 8 9 7 8 8 8 7 7 6 5 6 6 6 7 7 7 7
19 19 18 18 18 17 17 18 18 18 18 19 18 19 20 20 19 19 19 20 20 19 18 16 16 16 17 16 15 15 15 15 15 14 15 14 13 13 12 12 13 11 11 12 13 11 10 12 12 11 12 12 12 12 12 11 12 12 12 11 10 11 12 12 11 11 11 10 9 9 10 8 7 9 9 9 7 6 6 7 8 6 7 7 7
19 19 17 17 16 16 15 17 17 17 16 18 18 17 16 17 18 17 20 20 20 18 18 18 17 17 17 16 15 15 16 16 16 14 15 15 14 13 12 13 13 12 12 11 12 13 10 11 12 12 12 12 12 13 13 12 13 13 13 13 12 12 12 13 13 12 12 11 12 11 11 11 9 10 10 9 9 8 7 7 8 7 7 8 7
20 17 17 16 15 17 16 17 17 17 17 17 16 16 16 16 16 17 17 19 18 18 18 18 18 19 19 18 17 16 17 17 17 15 16 16 15 14 13 14 13 12 13 11 11 12 12 11 12 13 13 14 13 13 14 14 13 13 14 13 13 12 12 13 13 13 13 13 13 13 12 12 11 11 10 10 10 12 10 8 9 8 9 8 6
20 19 17 17 16 16 15 16 15 15 16 16 16 16 16 15 16 15 16 17 18 16 18 18 18 19 18 19 18 17 18 19 18 17 17 16 15 14 14 13 14 14 13 13 13 12 12 14 13 13 14 14 14 13 14 15 14 13 13 13 13 13 13 13 13 13 13 13 13 14 13 13 13 13 13 12 12 13 12 11 10 10 9 8 8
22 20 19 17 16 19 19 19 17 16 14 15 16 16 16 15 16 17 16 16 17 17 18 18 18 19 18 19 18 18 18 18 18 17 15 15 15 15 15 15 14 15 14 13 13 14 12 14 14 14 14 14 14 14 13 14 14 14 14 14 14 14 14 13 13 14 13 13 14 13 13 13 14 14 14 13 13 12 12 13 12 11 10 9 10
18 18 20 18 18 16 18 17 15 15 15 14 15 16 16 16 17 17 16 16 15 17 17 17 17 18 18 19 19 18 18 17 16 16 15 16 15 15 15 14 14 15 15 14 14 14 13 13 14 14 14 13 14 14 14 13 14 14 14 14 15 14 14 14 13 14 14 14 15 14 14 15 15 15 14 13 13 12 10 11 11 9 10 11 11
17 18 17 17 17 15 14 14 14 15 16 17 15 16 15 15 15 16 17 17 16 17 17 18 17 18 18 18 16 16 15 15 16 16 16 16 15 15 15 14 13 14 13 15 14 14 14 14 13 14 14 13 13 14 13 13 14 15 14 15 15 15 15 14 14 14 14 15 14 14 14 15 16 18 20 17 16 14 11 12 11 10 11 12 11
14 15 16 16 17 15 14 14 14 15 15 15 15 15 16 16 15 16 16 16 15 17 17 17 18 18 17 17 16 15 15 15 15 16 16 16 15 15 15 14 14 15 14 14 14 13 14 15 14 14 14 13 13 11 15 21 18 15 15 13 13 15 15 15 14 14 14 15 16 15 15 20 20 21 20 20 20 20 20 16 14 13 13 12 12
12 12 13 11 13 14 13 14 14 15 15 14 14 15 15 16 15 15 16 16 15 16 18 18 18 17 16 16 15 15 14 16 16 15 15 16 16 14 14 14 14 14 14 14 14 15 14 14 15 15 15 14 13 13 19 19 21 22 16 14 14 14 15 15 14 15 14 15 15 15 14 16 18 18 18 21 21 21 21 21 20 19 17 15 13
12 9 9 10 10 11 14 15 14 13 13 12 10 13 14 16 15 15 15 15 15 15 17 17 17 16 16 16 15 15 15 16 15 16 15 16 15 14 14 14 14 14 13 13 15 15 15 14 14 15 16 15 14 17 20 20 21 22 19 15 13 12 12 13 14 14 14 13 14 14 13 12 13 16 16 16 20 22 22 23 22 21 21 21 19
9 9 7 8 9 9 9 11 11 11 12 13 12 12 13 14 14 14 12 14 16 14 14 16 16 16 17 17 15 16 16 15 16 16 15 14 15 14 14 14 15 14 13 14 16 16 15 15 15 16 17 16 15 19 20 21 21 22 22 19 13 13 13 13 14 14 14 14 13 13 13 12 12 19 17 15 15 17 20 23 24 23 22 23 21
8 6 7 6 6 6 6 8 8 7 7 6 7 8 9 11 12 12 13 13 14 15 12 14 15 16 16 17 17 17 16 16 15 14 14 14 14 15 15 14 13 13 13 14 15 16 15 15 15 16 16 15 16 18 21 22 21 22 23 20 15 15 14 14 14 14 13 14 14 13 13 13 13 13 13 15 14 15 15 15 16 16 16 19 21
11 12 10 9 9 8 7 6 4 1 2 5 6 6 6 6 7 9 11 11 12 14 12 11 14 14 15 16 16 17 17 16 15 14 14 14 14 13 14 13 12 14 15 15 15 16 15 16 16 15 14 15 15 19 20 22 21 22 23 20 16 14 13 13 14 13 14 14 14 14 14 14 13 14 12 15 15 15 14 14 16 17 17 16 17
11 11 11 10 9 9 8 5 4 5 4 1 3 5 6 6 7 8 7 9 10 12 13 10 13 14 14 15 16 16 16 15 15 14 15 15 14 14 14 12 11 12 12 12 12 13 14 14 14 14 14 15 14 18 19 20 22 21 22 15 14 15 15 14 13 13 13 12 13 14 13 14 14 14 15 18 18 15 14 16 17 17 16 16 17
11 11 9 7 7 7 6 4 4 4 4 4 4 1 3 5 8 8 7 7 8 9 12 11 11 13 14 14 15 16 15 15 15 15 15 15 14 14 12 10 12 12 12 12 13 13 12 13 14 14 15 15 13 14 17 19 20 21 17 13 13 13 14 15 15 13 12 12 12 13 14 13 14 14 15 18 20 19 15 17 16 16 16 16 18
10 8 9 7 7 6 7 7 7 8 7 6 4 2 1 2 2 6 10 9 8 9 8 9 10 12 13 13 14 15 15 15 14 15 15 13 13 11 12 11 12 12 12 12 11 11 11 11 13 14 14 14 13 11 15 17 20 21 19 14 12 13 15 15 14 12 11 11 13 17 16 14 14 14 16 18 19 19 17 17 16 16 17 19 20
9 7 7 7 7 5 5 8 9 9 9 7 5 5 4 2 1 1 5 10 11 10 9 9 8 10 11 12 13 14 14 15 15 14 13 13 12 12 10 10 11 11 11 9 9 10 10 10 12 12 14 15 12 10 14 16 19 20 18 12 12 12 14 14 11 12 12 12 12 13 17 16 14 16 18 18 20 19 17 17 17 16 18 21 22
9 8 8 7 8 9 9 8 8 6 7 7 8 7 4 2 4 2 1 6 10 10 10 9 9 10 10 11 12 13 13 13 13 12 11 11 10 9 10 10 10 10 10 10 10 9 11 11 10 11 11 11 11 10 10 16 17 18 20 13 11 12 14 12 11 12 12 12 12 12 13 16 19 19 17 18 20 22 19 17 15 16 19 24 16
12 9 9 8 8 7 7 6 5 7 7 8 8 8 7 4 3 4 4 4 5 6 8 9 9 10 10 11 10 12 13 12 11 11 11 10 10 10 10 10 10 9 9 10 11 10 10 10 10 10 11 10 10 10 10 17 17 19 21 19 11 13 12 10 11 13 13 12 12 11 11 15 17 18 18 18 18 22 23 18 17 19 22 20 10
9 7 8 7 6 6 6 6 7 8 8 7 7 8 8 7 4 4 5 5 4 8 9 9 10 10 11 11 11 10 11 11 10 10 10 9 8 9 9 10 9 9 10 10 9 9 9 9 8 8 9 10 11 14 9 14 18 19 21 24 14 13 12 12 13 13 13 12 12 11 11 15 18 18 19 20 21 19 23 17 21 26 25 18 13
10 10 10 8 4 5 5 5 5 5 6 6 7 8 9 7 2 4 5 4 5 3 7 9 9 10 10 11 10 11 10 8 9 10 10 9 8 9 9 9 9 9 9 10 10 9 10 10 8 7 6 8 8 9 14 11 17 21 22 23 24 18 18 15 14 14 14 14 13 13 13 16 16 17 18 20 21 24 18 19 26 24 23 16 5
9 8 9 9 9 3 5 5 6 4 5 4 5 6 5 3 4 5 5 5 5 3 5 6 7 8 9 9 10 10 10 9 10 9 9 9 8 8 8 8 9 9 8 9 9 9 9 10 10 8 6 5 6 8 11 16 15 22 23 25 25 25 21 16 15 15 15 14 12 10 12 17 18 20 21 21 22 22 18 22 24 26 19 11 2
9 6 7 7 7 4 3 4 4 6 9 5 3 4 5 5 4 5 5 6 5 5 2 4 6 6 7 8 8 8 9 9 9 10 9 8 8 7 7 6 8 8 8 8 8 8 9 9 8 8 7 6 4 5 4 10 16 19 23 24 25 26 25 23 16 15 14 13 14 19 20 19 20 21 22 22 20 22 25 23 25 26 20 9 14
9 5 6 5 7 6 4 3 5 6 6 6 6 3 4 5 4 4 4 5 6 5 3 4 4 6 6 8 8 7 8 9 9 8 9 8 9 8 7 7 7 8 8 8 7 7 7 8 8 8 7 7 6 4 1 5 3 1 2 6 9 10 12 12 13 13 16 16 15 14 14 15 17 18 15 12 12 14 19 23 24 22 12 13 15
9 4 5 5 5 6 4 4 4 5 6 5 6 6 4 4 5 5 4 4 4 4 3 3 4 4 5 6 8 7 6 7 8 7 7 7 7 7 7 7 7 7 8 8 7 6 6 7 7 6 7 6 7 2 6 5 4 2 2 5 6 8 11 9 8 11 13 13 13 10 8 9 9 13 12 12 11 11 8 8 9 10 10 11 13
9 5 3 3 4 4 4 4 3 4 5 6 5 5 6 5 4 5 4 4 4 3 3 3 4 5 5 5 6 9 8 7 7 8 7 6 5 6 7 7 7 7 7 7 7 6 6 6 6 6 5 6 3 6 4 4 3 3 3 2 3 3 4 5 6 6 6 8 10 11 12 11 10 10 10 8 9 8 8 8 8 8 10 12 15
10 7 1 1 1 3 2 3 4 5 5 7 8 6 5 4 4 4 5 4 3 2 3 3 3 4 4 4 5 6 7 7 6 6 6 4 4 7 7 3 5 2 4 6 7 5 3 1 4 3 3 5 6 4 1 2 1 1 2 3 3 2 2 4 3 3 4 4 5 6 7 8 9 11 12 13 13 12 11 10 11 10 10 11 11
9 9 2 0 1 1 2 4 4 5 6 7 6 7 4 3 6 7 7 3 0 1 3 2 3 3 3 4 4 5 5 7 7 7 7 8 17 20 11 6 4 9 16 14 11 4 4 7 8 5 4 5 6 4 5 3 3 3 3 3 3 2 1 2 5 4 4 3 5 6 6 7 8 8 10 11 12 12 12 12 11 12 12 12 12
7 8 5 0 1 2 1 2 4 6 8 7 2 2 5 5 6 7 7 6 6 3 4 5 5 5 5 5 4 4 5 4 5 7 9 10 9 13 21 20 13 13 16 18 17 17 16 12 11 7 7 12 11 9 8 5 4 3 4 4 5 5 4 4 4 1 2 3 5 6 7 7 8 8 10 11 12 12 13 13 13 12 12 14 15
Wind_Direction
180 183 178 170 171 174 178 178 171 166 165 167 167 171 175 171 167 166 166 164 170 166 165 163 167 167 170 178 169 177 179 190 185 184 165 169 153 161 163 161 163 163 167 160 179 159 162 162 156 171 176 158 140 183 180 162 183 156 141 140 145 217 301 276 332 124 90 45 36 68 78 99 133 138 155 162 159 172 173 159 153 143 156 161 164
174 182 180 171 171 174 173 174 170 169 172 171 172 174 176 172 170 165 163 165 171 173 166 168 171 175 175 178 159 168 172 187 197 189 177 159 152 158 163 164 164 165 166 170 172 163 158 161 169 178 169 169 167 167 164 171 172 184 135 144 200 184 245 248 194 96 47 131 128 81 18 356 248 132 155 189 164 164 160 142 148 157 162 165 166
177 182 181 174 172 172 171 174 175 172 172 173 171 173 176 177 170 164 167 166 169 170 168 170 169 169 171 172 161 161 163 177 188 189 176 167 159 163 165 167 167 167 167 169 170 171 162 163 178 176 168 170 164 165 173 183 183 189 177 161 216 263 223 217 161 125 174 153 119 84 109 69 329 354 348 198 167 197 159 122 165 151 147 157 155
177 179 182 175 172 174 171 175 175 170 168 172 172 175 175 177 175 164 169 166 167 170 172 168 164 167 160 162 163 161 168 170 188 202 193 160 162 168 169 168 168 168 168 171 170 177 167 170 172 176 180 172 171 171 170 182 198 212 187 186 151 203 252 263 187 159 136 132 125 165 195 118 81 278 202 204 176 200 149 132 117 111 116 111 116
174 177 181 178 175 178 175 173 172 176 172 175 176 174 179 175 176 168 169 169 170 170 171 164 160 158 161 160 168 141 149 170 182 211 208 178 160 169 174 169 167 167 170 172 175 178 174 172 173 179 178 177 173 174 175 184 192 199 184 180 189 177 215 223 231 165 145 169 139 102 55 62 206 229 125 229 192 182 123 125 121 123 129 130 133
174 177 181 180 178 174 171 173 175 178 178 177 177 177 175 173 174 171 168 171 173 173 171 170 171 168 167 171 184 175 174 181 191 192 197 192 178 168 166 170 169 170 172 175 178 177 177 171 174 173 179 179 180 183 181 178 187 192 202 187 198 201 172 172 185 166 147 133 144 161 160 176 178 202 99 200 319 321 150 139 123 132 134 137 144
179 179 179 179 179 174 174 177 177 176 181 172 174 176 177 173 176 175 172 172 174 174 173 175 173 174 178 180 184 185 179 190 188 186 186 194 163 167 171 174 174 172 178 179 179 181 174 172 174 178 181 182 183 177 182 191 188 198 196 196 195 200 169 157 194 210 66 111 149 174 157 182 149 128 187 131 130 327 16 165 158 163 155 156 162
176 178 182 185 182 178 177 179 181 179 173 169 172 174 176 173 174 176 176 172 175 173 176 178 177 176 178 182 185 191 184 184 182 183 178 178 179 169 173 179 179 179 178 182 182 182 175 178 176 179 183 184 182 188 192 193 192 199 196 199 195 181 178 159 192 190 154 235 186 196 168 188 113 120 141 156 161 141 192 296 235 174 166 168 170
175 176 182 182 184 185 178 181 182 172 167 172 175 175 177 174 172 176 177 176 175 173 176 179 179 180 180 182 185 194 182 179 178 177 176 177 185 177 178 180 182 184 181 180 186 183 180 175 178 183 184 185 186 192 197 189 193 196 189 188 193 196 179 169 138 200 173 194 147 202 94 339 130 121 129 102 133 127 228 187 223 243 189 201 194
176 178 180 184 185 185 184 177 173 176 173 172 173 172 175 174 170 174 178 177 177 177 177 178 178 180 183 188 188 187 182 172 172 178 177 176 182 191 179 184 185 185 186 182 184 185 180 177 182 187 189 187 184 194 197 197 194 193 188 182 188 183 187 169 166 184 197 192 171 172 131 90 75 71 80 114 97 122 167 218 211 178 181 244 218
176 178 182 185 184 180 170 171 179 178 172 169 172 171 172 176 173 178 182 178 177 180 179 181 180 181 187 190 192 188 182 173 170 178 181 176 183 191 183 187 185 186 186 190 185 186 180 181 185 189 191 188 186 190 199 200 188 183 185 178 179 176 177 194 171 185 181 184 185 163 174 164 170 163 197 178 142 173 134 223 232 194 181 181 210
173 176 179 180 173 174 173 176 178 179 173 174 174 173 173 177 177 180 182 182 179 180 183 184 183 185 188 189 194 192 184 181 179 180 184 188 184 189 182 174 186 187 189 190 190 188 180 182 184 188 193 188 187 191 193 200 188 178 176 179 184 179 180 185 187 210 182 183 171 166 182 178 170 162 184 176 167 196 167 194 191 193 167 201 224
171 175 176 175 176 177 180 181 179 181 180 178 177 176 177 178 180 180 184 184 183 181 184 185 185 187 188 189 193 192 191 188 186 184 185 187 188 181 181 181 181 186 193 193 194 188 184 179 183 187 193 196 192 186 191 196 186 177 179 178 179 181 187 181 192 204 186 182 178 179 178 186 203 209 167 177 185 174 147 148 241 154 166 206 216
174 176 175 177 178 181 182 180 182 186 187 182 179 177 178 181 182 182 186 185 185 184 185 185 188 189 188 189 190 190 193 191 191 189 188 188 186 187 186 185 183 189 190 194 190 189 187 188 186 187 189 195 195 191 192 191 183 180 181 177 184 187 179 184 190 203 196 198 178 172 183 189 209 207 205 181 162 150 158 167 171 9 135 181 217
172 173 177 178 178 179 180 181 182 185 186 182 180 179 177 181 182 186 186 187 188 189 186 187 189 190 189 190 191 192 193 193 193 191 188 187 187 189 189 186 184 187 189 188 185 190 188 187 189 187 186 192 193 191 194 193 182 182 180 181 182 182 184 182 190 197 208 209 194 177 189 197 207 209 200 200 179 185 171 178 154 149 50 146 169
171 174 178 179 179 176 178 180 180 180 184 184 184 179 179 181 183 186 187 187 190 192 192 190 190 190 189 190 192 192 194 195 195 193 190 188 187 189 193 190 191 178 178 179 188 188 187 186 187 190 187 186 193 194 192 193 187 178 182 178 183 181 185 183 193 194 206 209 205 193 182 207 209 208 208 202 184 186 182 166 158 150 145 153 180
173 176 175 178 178 179 181 182 178 178 184 190 186 183 180 177 180 183 186 187 192 196 196 194 192 190 192 191 191 192 195 195 195 195 192 187 186 189 189 194 185 181 180 178 184 190 190 183 187 190 190 187 189 193 192 192 188 182 180 183 184 185 184 192 189 192 208 204 209 203 201 209 226 202 193 223 198 176 184 182 178 168 162 142 178
172 172 174 175 178 182 184 183 182 183 187 189 183 179 177 178 179 181 184 188 193 196 200 200 195 193 191 192 193 194 195 198 197 196 194 187 183 184 186 188 193 188 187 186 181 188 190 186 185 189 192 191 192 193 193 192 189 190 188 184 187 178 185 189 189 192 203 206 208 207 204 220 223 221 231 212 215 178 180 182 189 184 161 161 170
167 172 173 174 177 181 184 186 187 186 185 183 179 178 178 179 179 181 186 190 192 194 198 201 201 197 194 194 193 194 196 198 199 197 194 194 191 187 187 190 191 188 185 187 189 190 190 193 188 189 190 193 193 193 193 194 191 195 193 192 187 179 181 190 192 190 201 204 209 209 202 212 218 217 229 222 219 177 176 161 174 170 176 164 166
169 173 177 178 178 181 183 184 182 181 181 184 181 181 183 182 179 184 187 189 192 195 196 200 201 202 203 199 197 196 195 196 196 194 195 197 196 193 192 187 192 191 189 187 191 193 193 194 192 190 191 193 194 194 192 194 193 198 196 195 194 188 184 192 195 195 198 206 207 207 206 204 213 209 220 229 221 192 174 164 159 165 174 172 159
170 175 178 181 179 180 183 180 181 181 183 183 183 186 185 181 184 183 184 188 192 195 196 199 198 203 203 201 200 198 199 198 198 197 198 199 198 196 197 197 188 194 192 190 191 195 195 194 191 192 192 192 194 195 193 194 195 198 198 198 196 195 196 196 193 199 201 202 210 209 206 208 197 202 210 219 213 205 181 176 169 165 176 179 167
173 175 177 181 180 180 177 177 180 179 179 184 187 184 184 186 186 184 185 188 192 194 197 198 198 201 203 202 202 200 201 199 198 197 198 198 199 198 198 196 195 197 193 198 194 194 195 194 193 191 192 192 192 195 194 193 198 198 200 199 199 197 202 201 193 199 201 203 201 209 208 206 200 200 201 207 206 201 191 185 187 176 184 191 184
175 175 177 179 180 178 177 179 182 182 182 185 186 186 188 187 184 185 185 189 191 193 195 196 199 202 205 205 201 201 200 202 201 201 201 200 199 200 197 196 199 198 196 197 200 196 192 194 196 192 192 192 193 194 195 195 198 198 199 201 200 199 201 202 199 202 200 199 199 204 209 200 197 202 203 205 198 198 195 194 199 189 189 194 194
178 178 175 176 175 172 173 181 185 186 187 189 192 190 187 188 187 185 187 188 189 192 194 196 198 202 204 204 203 202 201 202 203 202 203 202 199 200 198 199 200 199 197 199 197 199 193 193 196 196 195 195 193 195 196 197 198 198 200 201 201 202 204 204 203 203 199 197 202 203 208 202 195 201 203 203 202 198 193 200 200 203 194 198 194
177 174 174 170 167 171 176 182 185 185 187 188 188 190 191 189 187 187 187 188 190 191 193 196 197 200 200 202 203 202 201 202 204 203 204 202 201 199 198 200 199 200 199 197 197 196 198 195 197 198 198 199 198 196 197 200 200 199 200 202 203 203 204 206 208 206 202 200 201 204 205 202 196 199 203 203 201 202 202 194 202 202 202 201 196
168 170 167 168 172 175 175 182 186 183 182 184 186 191 191 187 188 184 185 188 191 190 195 197 198 201 202 202 202 201 202 202 203 203 203 202 201 200 197 199 199 200 200 198 197 196 197 201 201 201 201 201 201 199 200 201 201 199 200 203 204 206 206 206 208 209 207 205 204 205 204 201 201 200 204 204 201 202 201 201 203 204 203 199 201
163 166 169 171 173 176 179 182 183 181 173 176 185 191 192 186 186 187 185 185 188 192 195 198 199 200 202 202 201 202 202 202 201 202 201 201 202 201 198 198 198 201 199 199 199 198 200 201 204 203 203 202 203 203 202 202 202 200 200 202 204 207 209 209 210 210 210 209 209 207 206 204 205 206 205 203 201 203 203 205 204 203 200 197 204
161 163 166 167 170 173 176 177 175 177 177 179 185 188 188 186 186 187 186 185 188 191 193 197 197 200 202 204 203 201 201 201 200 198 199 201 201 202 201 198 196 200 201 201 200 199 201 202 205 206 206 204 204 205 205 203 203 202 201 203 204 206 209 211 211 211 211 212 211 210 209 206 207 208 208 205 200 204 203 209 206 199 196 198 204
161 162 162 164 167 170 170 171 174 175 181 186 188 188 188 188 187 186 189 190 186 188 192 194 196 199 202 203 203 202 201 200 198 197 199 200 200 200 201 199 197 199 202 204 203 200 201 204 206 207 209 208 207 207 206 204 204 206 204 204 205 207 209 211 212 212 212 213 213 214 213 211 209 209 206 204 203 199 197 207 208 199 199 199 202
159 159 163 168 169 166 169 171 174 181 186 189 188 184 184 186 187 187 190 190 185 189 191 194 197 199 199 200 201 201 199 198 198 198 199 199 199 199 199 200 199 199 200 201 203 202 203 204 205 208 209 210 212 211 209 205 204 204 206 207 206 209 210 211 212 213 214 214 215 214 216 214 211 208 205 205 204 202 203 203 201 199 201 201 202
149 155 162 163 164 166 170 174 179 184 187 188 183 181 183 186 187 189 190 191 189 189 192 195 197 195 194 196 198 200 198 199 200 199 198 199 201 199 199 199 198 197 198 198 201 204 205 204 205 207 209 211 213 214 207 204 205 206 206 209 209 211 211 213 213 213 214 214 216 216 218 216 215 212 209 206 207 205 206 209 207 204 203 199 199
133 135 142 154 159 162 171 177 180 182 183 184 176 177 181 188 187 191 192 193 195 192 194 196 194 189 191 192 196 197 199 201 198 200 198 199 200 200 199 199 199 197 197 196 201 205 206 205 206 209 211 212 214 212 205 203 204 205 207 210 213 214 213 216 216 216 217 216 216 217 218 218 214 213 210 210 210 208 207 209 210 208 210 211 205
106 113 123 134 142 146 153 167 177 181 181 183 175 173 182 186 188 191 188 194 200 198 194 196 194 190 190 190 191 194 198 199 200 201 199 198 199 200 200 199 201 199 195 198 202 203 206 206 206 209 213 213 217 210 205 202 202 203 207 210 215 215 215 217 218 218 219 217 217 218 220 219 220 210 210 210 209 214 213 211 211 212 213 211 212
91 100 122 132 128 133 145 153 158 157 155 156 171 173 179 183 187 188 190 194 198 204 195 194 194 193 189 188 189 192 195 198 198 199 199 200 199 201 202 202 201 197 199 202 204 205 207 208 209 210 213 216 217 210 203 202 201 202 205 207 218 217 219 221 220 220 220 220 218 219 219 221 221 213 210 210 210 211 212 216 218 218 218 218 216
72 70 68 82 85 78 66 53 68 84 164 163 166 170 168 180 176 184 194 193 196 201 200 187 194 194 189 189 189 191 194 194 194 194 197 200 201 203 204 203 200 200 202 204 204 206 209 210 211 212 213 218 220 209 200 200 200 200 204 204 218 221 225 226 226 224 223 222 221 221 222 224 220 220 212 206 209 209 209 213 216 219 220 219 218
52 54 43 44 54 63 57 53 45 43 43 104 203 187 173 191 189 181 187 196 195 198 201 187 191 192 191 189 189 192 193 192 191 192 195 198 199 201 203 202 204 207 210 210 212 212 213 214 215 215 217 222 222 207 199 197 198 199 200 205 216 223 227 230 230 229 228 227 226 224 224 225 224 223 218 200 205 206 209 214 216 219 221 224 225
57 50 46 38 34 41 39 43 47 33 20 25 14 346 224 208 194 199 189 188 194 200 202 191 188 191 191 189 189 190 191 191 190 191 196 197 197 199 200 196 205 210 209 211 213 214 215 215 216 217 221 226 225 207 196 194 195 195 193 208 213 223 229 233 234 230 232 231 229 226 226 229 227 229 218 201 204 200 212 216 218 218 220 224 231
58 48 36 28 21 22 17 28 26 22 14 3 12 36 53 9 283 216 195 199 195 204 201 190 188 189 189 187 188 188 189 190 190 194 195 195 195 196 198 193 201 205 213 214 214 218 219 220 218 221 221 227 229 208 191 193 192 191 192 202 210 218 228 232 236 235 235 235 233 229 228 230 231 231 220 205 202 198 215 218 216 217 220 227 232
54 46 49 28 19 26 31 50 33 16 352 348 357 28 27 329 274 258 222 208 204 200 189 190 188 184 185 184 186 188 189 189 192 194 191 190 191 192 192 190 200 204 212 212 213 218 221 223 224 224 223 226 231 218 191 187 191 191 193 205 206 216 227 230 230 237 235 237 238 233 229 229 231 231 220 209 201 200 216 220 218 217 224 228 229
32 41 42 41 40 29 26 39 27 353 342 350 353 352 352 357 320 289 236 226 223 203 188 183 176 177 181 183 184 186 188 189 190 188 188 189 184 185 189 192 197 201 204 210 213 216 219 222 222 225 225 222 226 225 199 183 184 190 193 201 211 214 226 226 227 233 236 235 237 240 234 227 230 233 228 214 205 203 214 221 219 222 227 232 223
12 38 30 23 34 32 19 17 8 6 6 358 351 347 335 318 310 329 295 264 229 206 191 181 176 173 177 182 181 182 184 186 184 183 182 182 183 184 183 188 196 200 205 210 215 217 221 224 220 223 227 224 221 220 210 179 184 185 193 198 213 219 220 219 225 230 233 236 235 235 240 232 222 224 227 227 216 211 215 220 221 227 227 233 205
12 35 37 17 33 28 8 2 23 17 1 352 350 338 323 312 309 314 289 285 272 193 185 179 175 175 175 177 179 178 179 177 176 173 178 182 180 178 183 188 192 198 203 209 212 220 225 229 225 222 223 225 222 213 216 188 181 187 192 198 207 217 209 213 223 230 233 236 237 235 237 232 223 218 218 221 222 219 220 223 230 231 234 227 212
3 18 18 3 31 39 352 9 24 21 344 343 339 330 310 298 358 340 324 338 328 209 183 179 174 171 170 173 173 169 170 169 170 171 172 176 174 180 186 187 193 198 202 207 209 212 222 229 233 230 223 219 216 214 208 199 186 189 195 199 207 211 207 209 219 228 230 234 233 233 236 233 226 225 218 220 222 221 217 225 235 238 237 225 230
2 14 7 0 356 5 27 18 3 348 337 336 338 319 328 29 8 325 338 352 357 337 169 173 174 166 164 166 165 164 163 163 163 165 170 171 176 181 184 188 191 195 198 207 208 210 217 225 231 234 229 223 210 217 211 210 193 195 197 200 206 214 210 209 214 226 230 231 236 235 234 226 223 224 222 220 221 220 222 225 230 237 231 74 71
342 11 3 349 349 346 35 2 13 1 350 320 328 351 345 356 333 336 353 358 351 356 121 157 162 157 155 158 157 157 161 159 162 162 168 173 179 178 186 187 188 194 198 203 204 203 210 216 221 226 230 226 213 202 202 206 196 197 203 204 207 211 216 213 219 229 232 229 227 225 226 225 223 225 226 224 225 227 227 225 227 230 220 172 219
339 358 357 346 348 347 15 11 5 351 345 333 334 344 342 309 317 340 346 352 3 3 69 130 142 150 144 148 152 155 158 160 160 164 168 174 177 182 187 186 187 194 199 200 202 198 204 206 207 217 213 220 221 225 190 58 43 98 245 272 274 282 282 285 287 294 307 319 322 309 280 258 242 236 236 234 234 237 232 232 234 234 221 202 210
330 344 353 352 353 351 3 23 14 332 328 325 333 336 337 339 344 332 341 352 1 5 35 92 109 116 124 131 146 155 156 158 161 159 163 168 174 178 182 182 184 192 194 198 195 190 194 192 206 206 209 204 214 163 64 52 40 67 139 177 196 230 238 243 255 261 271 277 285 292 303 306 299 300 295 299 303 293 291 269 255 251 238 222 214
320 304 346 353 350 339 17 11 336 313 321 317 320 319 316 317 325 336 338 353 343 358 23 70 101 106 111 116 122 152 150 157 158 158 152 152 163 172 173 176 187 184 185 194 189 191 187 189 197 194 190 199 128 61 35 42 38 31 49 130 165 188 205 209 242 260 257 268 271 278 289 289 288 287 276 266 259 262 254 261 255 242 238 233 231
313 306 268 322 330 326 359 324 332 322 323 323 301 296 312 338 328 311 323 304 312 352 16 56 76 107 109 108 112 130 151 149 145 144 138 122 174 177 160 95 33 326 199 178 187 169 174 127 85 58 117 99 68 75 94 264 356 307 93 94 118 144 175 199 221 250 252 254 262 272 269 275 266 264 268 265 263 261 255 240 238 236 234 232 232
311 308 264 336 295 358 1 334 320 327 313 299 304 310 318 9 11 10 5 3 3 3 9 39 35 68 125 133 128 134 142 151 147 138 107 67 45 37 29 103 96 49 66 67 89 101 94 102 90 37 15 112 126 143 148 141 177 127 89 113 155 183 213 354 356 314 190 215 235 246 250 252 259 253 256 260 260 260 263 258 248 243 243 241 234
315 331 328 145 6 320 319 321 336 337 336 334 326 335 20 10 35 28 19 13 358 8 83 66 61 55 73 82 76 95 84 84 120 127 102 95 74 45 40 37 61 81 80 78 77 79 75 83 108 110 49 72 104 118 140 158 122 92 71 49 23 7 31 61 29 29 174 207 243 244 259 256 258 262 259 262 263 261 258 258 256 250 242 239 238